This is the latest recevied weather packets stored in our database for station/object N5SRF. If no packets are shown the sender has not sent any weather packets the latest 10 day(s).
| Time | Temp. | Humidity | Pressure | Rain* | Wind** | Luminosity | Snow |
|---|---|---|---|---|---|---|---|
| 1788046833 | 34.44° C | 49% | 1018 hPa | 0 mm | - | 43 W/m² | - |
| 1788046531 | 35° C | 48% | 1018.2 hPa | 0 mm | - | 45 W/m² | - |
| 1788046227 | 35° C | 47% | 1018 hPa | 0 mm | - | 48 W/m² | - |
| 1788045925 | 35.56° C | 47% | 1018.3 hPa | 0 mm | - | 54 W/m² | - |
| 1788045620 | 35.56° C | 47% | 1018.1 hPa | 0 mm | - | 118 W/m² | - |
| 1788045315 | 36.11° C | 47% | 1018.1 hPa | 0 mm | - | 112 W/m² | - |
| 1788045011 | 35.56° C | 47% | 1017.9 hPa | 0 mm | - | 125 W/m² | - |
| 1788044709 | 35.56° C | 46% | 1018.1 hPa | 0 mm | - | 161 W/m² | - |
| 1788044405 | 36.11° C | 46% | 1018.3 hPa | 0 mm | - | 178 W/m² | - |
| 1788044099 | 36.11° C | 47% | 1018.1 hPa | 0 mm | - | 208 W/m² | - |
| 1788043795 | 36.11° C | 46% | 1017.9 hPa | 0 mm | - | 214 W/m² | - |
| 1788043495 | 36.11° C | 47% | 1018 hPa | 0 mm | - | 228 W/m² | - |
| 1788043189 | 36.67° C | 47% | 1018.3 hPa | 0 mm | - | 240 W/m² | - |
| 1788042885 | 37.22° C | 45% | 1018.1 hPa | 0 mm | - | 246 W/m² | - |
| 1788042584 | 36.67° C | 44% | 1018.3 hPa | 0 mm | - | 267 W/m² | - |
| 1788042283 | 36.67° C | 45% | 1017.9 hPa | 0 mm | - | 286 W/m² | - |
| 1788041979 | 35.56° C | 48% | 1018.3 hPa | 0 mm | - | 307 W/m² | - |
| 1788041675 | 35.56° C | 48% | 1018.4 hPa | 0 mm | - | 81 W/m² | - |
| 1788041370 | 36.11° C | 47% | 1018.2 hPa | 0 mm | - | 96 W/m² | - |
| 1788041064 | 36.11° C | 47% | 1018.4 hPa | 0 mm | - | 352 W/m² | - |
| 1788040762 | 36.67° C | 46% | 1018.4 hPa | 0 mm | - | 266 W/m² | - |
| 1788040450 | 36.67° C | 46% | 1018.4 hPa | 0 mm | - | 128 W/m² | - |
| 1788040147 | 36.67° C | 45% | 1018.5 hPa | 0 mm | - | 412 W/m² | - |
| 1788039841 | 36.67° C | 45% | 1018.4 hPa | 0 mm | - | 431 W/m² | - |
| 1788039541 | 36.67° C | 47% | 1018.4 hPa | 0 mm | - | 454 W/m² | - |
* Rain latest hour (hover to see other rain measurements)
** Current wind speed in m/s (hover to see current wind gust speed)